O3B FM6 (40081 NORAD) Tracking and Keplerian Element Data

This shows tracking and keplerian element data for the satellite.

Feedback or suggestion? Click here.




ElementValue
Catalog40081
NameO3B FM6
Epoch Orbit13113
Epoch Day261.22723288
Epoch Year2021
RAAN11.1876
Inclination0.0447
Eccentricity0.0002579
Argument of Perigee165.1078
Mean Anonmoly183.7063
Mean Motion5.0011557
Decay Rate-3.2E-07
L11 40081U 14038C 21261.22723288 -.00000032 00000-0 00000-0 0 9991
L22 40081 0.0447 11.1876 0002579 165.1078 183.7063 5.00115570131136

Live tracking and technical data element details for O3B FM6 (NORAD 40081). O3B FM6 can be tracked NOW for your location showing map with azimuth and elevation plus other details from your city location.

Track the satellite on the map from your city or location and see movement details for azimuth, elevation, latitude, longitude, range, height, and movement on the map or in text.







IsCatalogInMostPopularTable: catalog: 40081, numindb: 521
Update: records affected: 1



GetName: 40081 O3B FM6

Hit Count: updated at: Fri, 24 Sep 2021 18:24:49 GMT